SCP
0 0 0 0 0 0 0 0 0 0 0 0 0 0 0 0 0 0 0 0 0 0
0 0 0 0 0 0 0 0 0 0 0 0 0 0 0 0 0 0 0 0 0 0
0 0 0 0 0 0 0 0 0 0 0 0 0 0 0 0 0 0 0 0 0 0
0 0 0 0 0 0 0 0 0 0 0 0 0 0 0 0 0 0 0 0 0 0
0 0 0 0 0 0 0 0 0 0 0 0 0 0 0 0 0 0 0 0 0 0
0 0 0 0 0 0 0 0 0 0 0 0 0 0 0 0 0 0 0 0 0 0
0 0 0 0 0 0 0 0 0 0 0 0 0 0 0 0 0 0 0 0 0 0
0 0 0 0 0 0 0 0 0 0 0 0 0 0 0 0 0 0 0 0 0 0
0 0 0 0 0 0 0 0 0 0 0 0 0 0 0 0 0 0 0 0 0 0
0 0 0 0 0 0 0 0 0 0 0 0 0 0 0 0 0 0 0 0 0 0
0 0 0 0 0 0 0 0 0 0 0 0 0 0 0 0 0 0 0 0 0 0
0 0 0 0 0 0 0 0 0 0 0 0 0 0 0 0 0 0 0 0 0 0
0 0 0 0 0 0 0 0 0 0 0 0 0 0 0 0 0 0 0 0 0 0
0 0 0 0 0 0 0 0 0 0 0 0 0 0 0 0 0 0 0 0 0 0
Wind_Speed_500mb
85 87 89 89 90 86 82 75 67 67 63 55 47 45 47 46 47 47 47 44 41 40
88 88 91 91 90 88 81 73 71 69 63 57 49 47 50 49 49 48 46 40 39 40
91 88 90 91 89 89 84 80 76 70 64 58 49 49 52 52 50 48 43 42 41 42
101 99 96 91 91 90 87 83 78 70 64 58 51 52 53 52 51 47 43 41 44 47
107 103 99 94 93 90 87 83 78 72 67 62 57 59 55 52 50 49 44 44 48 50
108 106 104 97 92 88 86 85 80 75 68 62 61 59 55 51 48 48 45 45 48 53
105 103 105 102 91 86 86 86 83 75 70 67 64 59 55 51 49 46 46 46 50 56
99 99 102 100 89 83 84 86 84 79 75 72 66 58 52 50 49 45 45 46 51 56
98 99 102 96 91 86 86 88 88 84 79 71 62 54 52 52 46 47 44 47 52 55
94 98 98 93 91 88 91 89 92 86 77 68 58 52 50 48 51 44 44 47 51 55
93 94 93 91 90 89 89 92 95 87 77 66 53 53 50 52 44 41 43 44 48 52
90 91 93 92 91 90 92 96 97 83 75 64 57 54 56 48 41 39 41 41 44 46
88 91 92 91 93 92 89 95 91 81 72 58 52 61 51 45 36 37 37 41 44 47
83 86 86 89 92 91 93 100 92 81 70 53 62 52 50 39 36 30 32 38 46 46
Wind_Direction_500mb
236 236 235 237 238 238 239 239 236 235 236 241 248 261 267 271 278 283 289 294 296 299
235 236 235 236 239 238 238 235 233 234 236 238 245 257 264 269 276 282 287 288 293 298
234 236 239 238 238 237 236 233 232 233 234 238 244 256 262 268 274 279 283 286 291 293
236 235 237 239 238 237 234 233 232 232 234 238 245 254 261 268 274 276 279 284 286 290
238 238 238 238 237 235 233 232 231 232 232 236 242 251 257 263 270 274 279 283 287 292
241 239 239 239 237 234 231 231 230 230 232 236 242 248 255 261 267 273 279 284 290 296
241 241 240 240 235 232 231 230 229 228 230 234 241 247 254 260 267 272 279 286 293 297
241 241 240 238 235 232 230 229 227 225 227 232 238 244 250 260 268 273 280 290 296 297
239 238 238 236 232 229 228 226 224 224 226 231 237 242 250 259 266 272 283 293 296 299
239 236 235 233 229 226 225 223 222 222 225 231 235 242 252 266 267 277 287 294 297 300
235 234 233 230 227 225 224 222 220 219 224 227 230 241 255 258 265 275 285 289 299 302
234 233 231 228 226 224 222 218 217 217 221 222 230 242 246 254 264 273 280 294 299 307
234 233 232 229 225 222 219 218 216 216 218 219 233 240 246 248 252 266 285 294 303 309
234 233 231 227 224 220 214 212 212 213 215 220 234 236 241 243 248 267 282 294 297 305
Wind_Speed_850mb
85 87 89 89 90 86 82 75 67 67 63 55 47 45 47 46 47 47 47 44 41 40
88 88 91 91 90 88 81 73 71 69 63 57 49 47 50 49 49 48 46 40 39 40
91 88 90 91 89 89 84 80 76 70 64 58 49 49 52 52 50 48 43 42 41 42
101 99 96 91 91 90 87 83 78 70 64 58 51 52 53 52 51 47 43 41 44 47
107 103 99 94 93 90 87 83 78 72 67 62 57 59 55 52 50 49 44 44 48 50
108 106 104 97 92 88 86 85 80 75 68 62 61 59 55 51 48 48 45 45 48 53
105 103 105 102 91 86 86 86 83 75 70 67 64 59 55 51 49 46 46 46 50 56
99 99 102 100 89 83 84 86 84 79 75 72 66 58 52 50 49 45 45 46 51 56
98 99 102 96 91 86 86 88 88 84 79 71 62 54 52 52 46 47 44 47 52 55
94 98 98 93 91 88 91 89 92 86 77 68 58 52 50 48 51 44 44 47 51 55
93 94 93 91 90 89 89 92 95 87 77 66 53 53 50 52 44 41 43 44 48 52
90 91 93 92 91 90 92 96 97 83 75 64 57 54 56 48 41 39 41 41 44 46
88 91 92 91 93 92 89 95 91 81 72 58 52 61 51 45 36 37 37 41 44 47
83 86 86 89 92 91 93 100 92 81 70 53 62 52 50 39 36 30 32 38 46 46
Wind_Direction_850mb
236 236 235 237 238 238 239 239 236 235 236 241 248 261 267 271 278 283 289 294 296 299
235 236 235 236 239 238 238 235 233 234 236 238 245 257 264 269 276 282 287 288 293 298
234 236 239 238 238 237 236 233 232 233 234 238 244 256 262 268 274 279 283 286 291 293
236 235 237 239 238 237 234 233 232 232 234 238 245 254 261 268 274 276 279 284 286 290
238 238 238 238 237 235 233 232 231 232 232 236 242 251 257 263 270 274 279 283 287 292
241 239 239 239 237 234 231 231 230 230 232 236 242 248 255 261 267 273 279 284 290 296
241 241 240 240 235 232 231 230 229 228 230 234 241 247 254 260 267 272 279 286 293 297
241 241 240 238 235 232 230 229 227 225 227 232 238 244 250 260 268 273 280 290 296 297
239 238 238 236 232 229 228 226 224 224 226 231 237 242 250 259 266 272 283 293 296 299
239 236 235 233 229 226 225 223 222 222 225 231 235 242 252 266 267 277 287 294 297 300
235 234 233 230 227 225 224 222 220 219 224 227 230 241 255 258 265 275 285 289 299 302
234 233 231 228 226 224 222 218 217 217 221 222 230 242 246 254 264 273 280 294 299 307
234 233 232 229 225 222 219 218 216 216 218 219 233 240 246 248 252 266 285 294 303 309
234 233 231 227 224 220 214 212 212 213 215 220 234 236 241 243 248 267 282 294 297 305